Online Auction of Plastic and Rubber Fabrication Machine Shop Equipment for Sale in Fremont, CA

Lot #0102: Proto Trak TRM 2 Axis CNC Vertical Milling Machine

Bidding is closed.
High Bid:$4,750.00
NA
Bidding Ended: Thu, Feb 14  10:06:21 am PT
High Bidder: machnet
Bid Increment: $50.00
Starting Bid: $5.00
Item Location: 4623 Enterprise Common, Fremont, CA 94538
Item has been viewed 1,124 times.

Proto Trak TRM 2 Axis CNC Vertical Milling Machine

  • Model: TRAK-TRM
  • Serial: 94474
  • Variable Speed Trak DPM Mill
  • Low Speeds: 70-500 RPM
  • High Speeds: 600-4200RPM
  • 3HP
  • 3 Phase
  • 1720 RPM
  • 2003 Proto Trak MX2 Control
  • 230 Volts
  • Table : 62” x 10”
  • Side Mounted Work Lamp
  • X = 29”
  • Y = 16”
  • Shop Footprint: 60” x 60” x 80”
Bid Date Bid Amount Bidder
Feb 14, 2019 - 10:04:21 AM $4,750.00 imachnet
Feb 14, 2019 - 10:04:21 AM $4,700.00 imbatlett43
Feb 14, 2019 - 10:03:01 AM $4,650.00 imachnet
Feb 14, 2019 - 10:02:45 AM $4,600.00 imbatlett43
Feb 14, 2019 - 10:02:45 AM $4,550.00 imachnet
Feb 14, 2019 - 9:59:27 AM $4,250.00 imachnet
Feb 14, 2019 - 9:59:27 AM $4,200.00 imbatlett43
Feb 14, 2019 - 9:59:09 AM $4,150.00 imbatlett43
Feb 14, 2019 - 9:59:09 AM $4,100.00 imachnet
Feb 14, 2019 - 9:58:52 AM $3,850.00 imbatlett43
Feb 14, 2019 - 9:58:52 AM $3,800.00 imachnet
Feb 14, 2019 - 9:58:37 AM $3,750.00 imbatlett43
Feb 14, 2019 - 9:58:37 AM $3,700.00 imachnet
Feb 14, 2019 - 9:50:15 AM $3,550.00 imachnet
Feb 14, 2019 - 9:50:15 AM $3,500.00 ilewismachine
Feb 14, 2019 - 9:50:04 AM $3,300.00 ilewismachine
Feb 14, 2019 - 9:50:04 AM $3,250.00 imachnet
Feb 14, 2019 - 9:49:50 AM $3,050.00 ilewismachine
Feb 14, 2019 - 9:49:50 AM $3,000.00 imachnet
Feb 14, 2019 - 9:49:22 AM $2,550.00 ilewismachine
Feb 14, 2019 - 9:49:22 AM $2,500.00 imachnet
Feb 14, 2019 - 9:35:41 AM $1,955.07 imachnet
Feb 14, 2019 - 9:35:41 AM $1,905.07 iTobarind
Feb 14, 2019 - 8:57:46 AM $1,750.00 imachnet
Feb 14, 2019 - 8:57:46 AM $1,700.00 ijtx1988
Feb 14, 2019 - 8:49:22 AM $1,650.00 imachnet
Feb 14, 2019 - 8:49:08 AM $1,600.00 ijtx1988
Feb 14, 2019 - 8:49:09 AM $1,600.00 imachnet
Feb 14, 2019 - 8:41:38 AM $1,550.00 ijtx1988
Feb 14, 2019 - 8:41:38 AM $1,500.00 imachnet
Feb 14, 2019 - 8:37:19 AM $1,450.00 ijtx1988
Feb 14, 2019 - 8:37:06 AM $1,400.00 imachnet
Feb 14, 2019 - 8:37:06 AM $1,360.00 ijtx1988
Feb 14, 2019 - 8:33:20 AM $1,310.00 imachnet
Feb 14, 2019 - 8:33:20 AM $1,260.00 iwebsurfshop
Feb 13, 2019 - 9:41:38 PM $1,210.00 iwebsurfshop
Feb 13, 2019 - 9:41:38 PM $1,203.06 ijohnyryan81
Feb 13, 2019 - 8:33:17 PM $1,110.00 ijohnyryan81
Feb 13, 2019 - 8:33:17 PM $1,060.00 i10eemonarch
Feb 12, 2019 - 10:15:08 PM $1,010.00 ijohnyryan81
Feb 12, 2019 - 10:15:08 PM $1,000.00 icohowater
Feb 12, 2019 - 6:44:34 PM $510.00 ijohnyryan81
Feb 12, 2019 - 6:44:34 PM $500.00 iEDSincShandon
Feb 12, 2019 - 2:39:53 PM $210.00 iEDSincShandon
Feb 12, 2019 - 2:39:53 PM $200.00 ijtx1988
Feb 12, 2019 - 10:25:07 AM $5.00 iEDSincShandon
Click on any picture to see a larger image.